Torna al catalogo

DELTA 1 DEB

AttivoLEO
NORAD 7014·DEBRIS·🇺🇸 United States

Lanciato Nov 6, 1973 da Vandenberg Space Force Base

Loading…

Prossimi Passaggi (prossime 24 ore)

TLE

AggiornatoSource: Space-Track

Epoca: Sep 14, 2026, 11:24 UTC

1 07014U 73086E   26257.47529735 -.00000068  00000-0 -23991-4 0  9994
2 07014 101.6875 336.6418 0403560  88.1077 276.6195 13.23262104548076

Traccia DELTA 1 DEB in tempo reale con AllMySat

Download on the App Store